Weather History for New Iberia, LA

Change the Weather History Date:

Wednesday, January 30, 2013

  Actual Average Record
Temperature  
Mean Temperature 59 °F 53 °F  
Max Temperature 73 °F 63 °F 80 °F (1957)
Min Temperature 44 °F 43 °F 18 °F (1966)
Degree Days  
Heating Degree Days 6 12  
Month to date heating degree days 265 381  
Since 1 July heating degree days 700 928  
Cooling Degree Days 0 0  
Month to date cooling degree days 38 9  
Year to date cooling degree days 38 9  
Growing Degree Days 8 (Base 50)    
Moisture  
Dew Point 48 °F    
Average Humidity 63    
Maximum Humidity 90    
Minimum Humidity 36    
Precipitation  
Precipitation 0.85 in 0.19 in 2.10 in (1972)
Month to date precipitation 12.80 5.04  
Year to date precipitation 12.80 5.04  
Sea Level Pressure  
Sea Level Pressure 29.88 in    
Wind  
Wind Speed 14 mph (WNW)    
Max Wind Speed 28 mph    
Max Gust Speed 36 mph    
Visibility 8 miles    
Events Rain , Thunderstorm    
T = Trace of Precipitation, MM = Missing Value Source: NWS Daily Summary

Daily Weather History Graph

Daily Weather History Graph

Search for Another Location

Airport:

Trip Planner

Search our weather history database for the weather conditions in past years. The results will help you decide how hot, cold, wet, or windy it might be!

Date:

Astronomy

Jan. 30, 2013 Rise Set
Actual Time 6:58 AM CST 5:43 PM CST
Civil Twilight 6:33 AM CST 6:08 PM CST
Nautical Twilight 6:04 AM CST 6:37 PM CST
Astronomical Twilight 5:36 AM CST 7:05 PM CST
Moon 9:20 PM CST (1/30) 8:46 AM CST (1/30)
Length of Visible Light 11h 34m
Length of Day
10h 44m
Waning Gibbous, 87% of the Moon is Illuminated
Jan 30
Waning Gibbous
Feb 3
Last Quarter
Feb 10
New
Feb 17
First Quarter
Feb 25
Full

Hourly Weather History & Observations

Time (CST) Temp. Windchill Dew Point Humidity Pressure Visibility Wind Dir Wind Speed Gust Speed Precip Events Conditions
12:35 AM 73.4 °F - 68.0 °F 83% 29.76 in 8.0 mi South 20.7 mph 29.9 mph N/A   Overcast
12:53 AM 73.0 °F - 68.0 °F 84% 29.75 in 8.0 mi South 19.6 mph 27.6 mph N/A   Overcast
1:53 AM 72.0 °F - 68.0 °F 87% 29.73 in 8.0 mi South 18.4 mph 28.8 mph N/A   Overcast
2:53 AM 73.0 °F - 68.0 °F 84% 29.74 in 8.0 mi SSW 15.0 mph 23.0 mph 0.00 in   Overcast
3:08 AM 71.6 °F - 68.0 °F 88% 29.73 in 8.0 mi South 13.8 mph 23.0 mph 0.00 in   Overcast
3:44 AM 71.6 °F - 68.0 °F 88% 29.70 in 7.0 mi South 16.1 mph 23.0 mph 0.00 in Rain , Thunderstorm Light Rain
3:53 AM 73.0 °F - 69.1 °F 87% 29.70 in 8.0 mi South 20.7 mph 26.5 mph 0.00 in Thunderstorm Overcast
4:08 AM 62.6 °F - 59.0 °F 88% 29.73 in 6.0 mi NW 16.1 mph 27.6 mph 0.03 in Rain , Thunderstorm Heavy Rain
4:14 AM 60.8 °F - 57.2 °F 88% 29.74 in 1.8 mi WNW 19.6 mph 31.1 mph 0.16 in Rain , Thunderstorm Heavy Thunderstorms and Rain
4:20 AM 60.8 °F - 55.4 °F 82% 29.75 in 0.8 mi WNW 10.4 mph 31.1 mph 0.41 in Rain , Thunderstorm Heavy Thunderstorms and Rain
4:32 AM 59.0 °F - 55.4 °F 88% 29.74 in 2.0 mi NW 8.1 mph - 0.62 in Rain , Thunderstorm Thunderstorms and Rain
4:40 AM 59.0 °F - 55.4 °F 88% 29.74 in 3.0 mi NNW 11.5 mph - 0.66 in Rain , Thunderstorm Heavy Thunderstorms and Rain
4:53 AM 57.0 °F - 52.0 °F 83% 29.75 in 9.0 mi NW 9.2 mph - 0.68 in Rain Light Rain
6:53 AM 59.0 °F - 53.1 °F 81% 29.76 in 10.0 mi WNW 5.8 mph - 0.01 in   Overcast
7:53 AM 59.0 °F - 52.0 °F 78% 29.79 in 10.0 mi West 9.2 mph - N/A   Mostly Cloudy
8:53 AM 60.1 °F - 48.9 °F 67% 29.83 in 10.0 mi West 12.7 mph - N/A   Overcast
9:53 AM 59.0 °F - 41.0 °F 51% 29.86 in 10.0 mi WNW 16.1 mph 23.0 mph N/A   Overcast
10:53 AM 60.1 °F - 37.9 °F 44% 29.88 in 10.0 mi WNW 15.0 mph 23.0 mph N/A   Overcast
11:53 AM 60.1 °F - 35.1 °F 39% 29.89 in 10.0 mi West 15.0 mph - N/A   Overcast
12:53 PM 60.1 °F - 33.1 °F 36% 29.89 in 10.0 mi West 19.6 mph 28.8 mph N/A   Overcast
1:53 PM 61.0 °F - 33.1 °F 35% 29.90 in 10.0 mi WNW 24.2 mph 32.2 mph N/A   Scattered Clouds
2:53 PM 61.0 °F - 36.0 °F 39% 29.92 in 10.0 mi WNW 20.7 mph 31.1 mph N/A   Clear
3:53 PM 59.0 °F - 36.0 °F 42% 29.96 in 10.0 mi NW 21.9 mph 28.8 mph N/A   Clear
4:53 PM 57.0 °F - 34.0 °F 42% 29.99 in 10.0 mi NW 23.0 mph 31.1 mph N/A   Clear
5:53 PM 53.1 °F - 33.1 °F 47% 30.03 in 10.0 mi NNW 17.3 mph 24.2 mph N/A   Clear
6:53 PM 52.0 °F - 30.9 °F 45% 30.08 in 10.0 mi NW 18.4 mph 24.2 mph N/A   Clear
7:53 PM 48.0 °F - 33.1 °F 56% 30.13 in 10.0 mi NNW 5.8 mph - N/A   Clear
8:53 PM 46.0 °F 43.1 °F 35.1 °F 66% 30.16 in 10.0 mi NNW 5.8 mph - N/A   Clear
9:53 PM 45.0 °F 41.8 °F 34.0 °F 65% 30.18 in 10.0 mi NW 5.8 mph - N/A   Clear
10:53 PM 44.1 °F 41.5 °F 34.0 °F 68% 30.20 in 10.0 mi NW 4.6 mph - N/A   Clear
11:53 PM 45.0 °F 42.6 °F 34.0 °F 65% 30.22 in 10.0 mi WNW 4.6 mph - N/A   Clear